Volver al catálogo

THOR ABLESTAR DEB

ActivoLEO
NORAD 141·DEBRIS·🇺🇸 United States

Lanzado Jun 29, 1961 desde Cape Canaveral Space Force Station

Loading…

Próximos Pases (próximas 24 horas)

TLE

ActualizadoSource: Space-Track

Época: Sep 14, 2026, 04:40 UTC

1 00141U 61015AB  26257.19460811  .00000142  00000-0  17881-3 0  9996
2 00141  66.5885 185.5916 0055336 341.1399  18.7626 13.89063206284184

Sigue THOR ABLESTAR DEB en tiempo real con AllMySat

Download on the App Store